Location: Deuil
(48.9767°N, 2.3272°E)
Time: 08:48:36
(UTC+00:00)

Cosmos 1908 - Pass Details

Date: 24 October 2021
Orbit: 509 x 528 km, 82.5° (Epoch: 30 November)

Event Time Altitude Azimuth Distance (km) Brightness Sun altitude
Rises 17:24:27 0° 191° (S) 2,647 7.1 -7.3°
Reaches altitude 10° 17:26:35 10° 192° (SSW) 1,761 6.2 -7.7°
Maximum altitude 17:30:27 80° 279° (W) 537 3.4 -8.3°
Drops below altitude 10° 17:34:20 10° 8° (N) 1,765 5.7 -8.9°
Sets 17:36:29 0° 9° (N) 2,654 6.6 -9.3°
